Lid_Strength_Index
-0 0 0 -0 0 0 0 -1 -1 -1 -1 -1 -1 -1 -1 -1 -1 -1 -1 -0 -0 -0
-0 -0 0 -0 -0 -0 -1 -1 -1 -1 -1 -1 -1 -1 -1 -1 -0 -1 -1 -1 -1 -1
-0 -0 -0 -0 -0 -0 -1 -1 -1 -1 -1 -1 -1 -1 -1 -1 -1 -0 -1 -1 -0 -1
-0 -0 -0 -0 -0 -0 -1 -1 -1 -1 -1 -1 -0 -1 -1 -1 -1 -0 -0 -0 -0 -0
-0 -0 0 -0 -0 -1 -0 -1 -1 -1 -1 -1 -1 -1 -0 -0 -0 0 0 0 -0 0
0 0 0 -0 -0 -0 -0 -0 -1 -1 -0 -0 -0 -1 -1 -1 -0 -0 -0 -0 0 0
1 0 0 -0 -0 -0 -1 -0 -0 -1 -0 -1 -1 -1 -1 -1 -0 -0 -0 -1 -1 -0
0 -0 -0 0 -0 -0 -0 -0 -1 -0 -1 -1 -1 -0 -0 -0 -0 -0 -0 -0 -1 -1
0 0 0 0 0 0 0 -0 -0 0 -0 0 -0 5 4 1 -0 -0 -0 -0 -0 -1
1 1 1 1 1 1 1 -0 0 -0 0 0 0 6 5 4 -0 -0 -0 -0 -0 -0
4 3 2 1 1 1 0 0 0 0 -0 -0 0 5 6 4 -1 -1 -0 -0 -0 -0
3 3 4 4 3 1 0 0 0 -0 0 0 -0 5 5 2 -0 -0 -0 -0 -0 -0
6 5 6 5 5 3 2 2 1 0 -0 3 2 7 7 3 1 1 1 0 1 6
7 6 6 6 5 4 3 3 3 2 2 1 3 5 8 8 2 3 3 3 2 1